Wind_Speed
47 49 49 50 45 40 40 41 39 35 33 34 35 39 38 35 31 30 28 27 26 29 25 23 21 20 19
45 49 49 47 47 44 43 41 38 36 32 34 34 35 37 36 32 31 30 29 28 28 27 26 24 23 22
46 50 56 47 46 46 44 42 40 36 35 33 36 36 36 36 34 31 29 28 29 30 29 27 26 25 24
47 51 58 49 44 48 48 47 43 40 39 38 35 37 38 37 35 33 32 30 30 29 29 27 26 25 25
34 46 49 49 54 51 47 48 46 46 45 45 42 42 41 39 37 35 32 30 29 29 29 28 26 25 25
13 41 48 55 51 51 51 49 48 52 48 48 48 47 45 42 40 36 34 31 29 27 28 28 27 27 28
36 15 33 49 50 54 52 53 51 47 51 49 49 48 46 43 40 37 34 33 29 28 28 29 29 28 28
48 32 26 26 44 49 52 54 49 48 44 47 51 49 45 42 39 37 36 35 34 32 31 31 29 27 26
43 44 36 29 34 49 52 51 47 49 45 45 48 45 45 39 37 37 37 36 35 34 32 30 28 26 24
51 53 47 37 28 56 58 53 48 43 46 41 37 35 35 38 36 36 35 34 33 33 32 31 28 26 25
36 47 56 49 38 60 50 53 49 45 43 44 39 37 30 27 38 38 36 36 37 36 33 30 28 28 26
33 37 49 53 42 60 60 54 46 45 41 40 41 43 40 30 31 42 40 39 37 36 34 32 31 28 27
37 39 51 54 33 58 56 47 48 49 41 41 40 40 39 42 39 37 41 43 41 37 33 31 28 26 24
42 43 45 61 44 57 57 51 49 44 40 37 32 33 37 46 41 37 39 44 42 38 34 32 27 24 21
44 44 42 61 54 59 56 54 50 46 45 41 38 40 40 39 44 38 38 42 37 39 35 29 24 21 18
46 48 47 51 52 54 57 60 56 53 49 45 43 45 42 38 43 43 40 41 38 31 28 25 23 21 18
45 49 48 51 52 49 58 56 56 52 51 47 49 49 46 38 39 36 38 37 34 32 27 23 21 19 18
Wind_Direction
223 224 223 218 215 216 217 215 213 214 217 215 214 216 218 219 218 220 224 227 229 233 238 243 243 245 248
219 219 220 220 218 214 213 212 210 211 213 213 214 214 216 215 218 220 224 228 233 236 239 241 245 247 249
222 227 219 214 214 214 216 212 211 211 214 214 215 216 214 220 222 225 228 229 231 235 239 242 245 247 254
224 223 214 208 213 213 213 218 215 215 214 216 215 216 217 222 226 229 231 232 233 235 240 242 247 249 254
228 200 202 207 209 212 214 216 217 221 216 214 214 217 217 220 224 227 230 232 236 240 243 244 247 249 254
278 203 205 213 213 216 215 214 217 221 220 219 216 218 219 221 224 225 228 230 237 241 240 241 244 249 254
254 206 201 212 223 218 217 217 218 219 216 220 219 223 223 223 227 229 229 233 237 240 235 239 244 249 254
251 232 208 207 229 235 227 221 219 222 219 215 220 220 224 225 226 230 233 234 234 236 238 242 242 244 250
244 240 234 228 224 225 212 210 212 219 217 218 222 224 224 226 227 227 230 228 229 232 232 234 238 241 247
244 245 244 234 231 219 217 216 212 216 220 216 219 218 221 225 222 218 218 222 224 226 228 231 235 238 248
250 242 243 241 252 220 217 220 218 223 223 219 217 215 214 215 213 215 217 220 221 223 225 228 233 240 246
247 243 239 235 239 218 223 220 221 227 228 231 226 223 220 211 205 210 215 218 222 223 222 225 230 238 247
246 239 234 228 239 216 214 212 219 224 226 228 235 227 229 213 209 206 211 215 217 218 220 226 232 240 247
240 236 238 223 235 212 211 208 210 212 212 217 220 230 225 219 221 221 215 214 214 215 218 225 232 240 246
243 238 232 217 233 209 217 209 205 210 207 208 207 217 219 221 218 220 220 213 216 214 216 222 225 234 246
237 227 228 219 224 200 212 208 205 207 208 203 209 207 208 215 219 223 210 206 203 205 213 213 220 230 240
226 221 223 221 213 205 202 203 203 208 211 213 210 206 202 198 201 204 210 204 210 208 215 216 222 233 243
Height
1421 1432 1439 1443 1448 1455 1463 1467 1472 1477 1482 1487 1491 1496 1501 1505 1510 1514 1517 1521 1525 1528 1531 1534 1536 1538 1539
1414 1422 1427 1434 1441 1447 1453 1458 1463 1470 1475 1480 1485 1489 1493 1498 1503 1507 1511 1515 1518 1522 1525 1528 1530 1532 1534
1403 1412 1417 1424 1431 1440 1444 1450 1456 1462 1469 1474 1478 1483 1487 1492 1496 1500 1504 1508 1512 1515 1519 1521 1524 1526 1529
1395 1401 1403 1412 1418 1426 1432 1440 1446 1453 1460 1467 1472 1476 1480 1485 1490 1494 1497 1502 1506 1509 1513 1515 1518 1520 1522
1385 1387 1392 1400 1406 1414 1420 1430 1436 1445 1450 1455 1462 1467 1471 1476 1481 1485 1490 1494 1499 1502 1506 1509 1511 1513 1515
1375 1375 1380 1390 1398 1404 1414 1420 1427 1433 1442 1447 1450 1455 1462 1466 1471 1476 1482 1487 1492 1495 1498 1501 1503 1505 1508
1370 1366 1373 1379 1388 1397 1403 1410 1415 1421 1431 1437 1441 1446 1453 1458 1463 1469 1475 1480 1484 1488 1490 1493 1495 1497 1500
1361 1360 1363 1373 1381 1386 1395 1403 1410 1415 1422 1425 1428 1437 1445 1448 1454 1461 1467 1472 1475 1479 1483 1485 1487 1489 1491
1353 1353 1358 1367 1370 1378 1384 1390 1399 1405 1412 1417 1422 1429 1435 1439 1445 1452 1457 1462 1466 1470 1474 1477 1480 1482 1483
1340 1342 1348 1353 1360 1367 1370 1379 1388 1396 1399 1410 1415 1421 1427 1431 1435 1441 1447 1453 1458 1462 1466 1469 1472 1474 1475
1329 1332 1338 1342 1350 1360 1361 1368 1374 1383 1391 1400 1407 1413 1418 1420 1426 1432 1438 1445 1449 1453 1458 1462 1464 1466 1468
1322 1323 1326 1335 1340 1344 1350 1356 1367 1374 1384 1389 1397 1404 1409 1414 1417 1423 1430 1436 1441 1445 1449 1453 1456 1458 1460
1308 1309 1314 1326 1331 1337 1339 1348 1356 1365 1375 1380 1387 1396 1401 1405 1408 1413 1421 1426 1431 1436 1440 1445 1449 1451 1454
1297 1300 1307 1313 1323 1323 1329 1335 1344 1355 1363 1372 1378 1388 1392 1397 1403 1407 1411 1416 1423 1427 1432 1437 1441 1445 1446
1284 1288 1293 1300 1312 1308 1319 1325 1331 1342 1353 1362 1369 1380 1385 1389 1394 1398 1402 1408 1415 1420 1425 1430 1434 1437 1438
1271 1276 1281 1288 1300 1296 1303 1312 1319 1330 1342 1350 1359 1368 1375 1380 1386 1389 1395 1399 1406 1413 1417 1422 1426 1429 1430
1259 1264 1270 1279 1286 1287 1290 1300 1309 1320 1332 1340 1349 1356 1363 1371 1377 1381 1388 1394 1400 1405 1410 1414 1418 1422 1423